SAS4414 ENSB-ENGM

Flight info

Callsign SAS4414
Flight time N/A
Altitude 37000
Route AMPIS DCT LIPSA DCT SOMUB DCT ABUNO DCT INREX
Aircraft B738/M-SDE2E3FGHIRWXY/LB1

Departure

Time 2026-05-05 13:19
Airport Svalbard Airport, Longyear (ENSB)

Arrival

Time N/A
Airport Oslo-Gardermoen International Airport (ENGM)
Time Latitude Longitude Altitude Speed Heading
2026-05-05 13:04 78.24621 15.49412 87 ft 0 kts 105°
2026-05-05 13:14 78.24621 15.49413 87 ft 0 kts 105°
2026-05-05 13:14 78.24616 15.49466 88 ft 4 kts 122°
2026-05-05 13:15 78.24574 15.49516 89 ft 9 kts 181°
2026-05-05 13:15 78.24494 15.49432 87 ft 14 kts 198°
2026-05-05 13:15 78.24478 15.48959 91 ft 18 kts 285°
2026-05-05 13:15 78.24512 15.48346 89 ft 19 kts 285°
2026-05-05 13:16 78.24548 15.47723 90 ft 20 kts 285°
2026-05-05 13:16 78.24591 15.46963 91 ft 26 kts 285°
2026-05-05 13:16 78.24639 15.46085 94 ft 26 kts 285°
2026-05-05 13:16 78.24685 15.45254 95 ft 24 kts 285°
2026-05-05 13:17 78.24729 15.44480 95 ft 23 kts 285°
2026-05-05 13:17 78.24757 15.43987 94 ft 22 kts 285°
2026-05-05 13:17 78.24797 15.43259 92 ft 22 kts 285°
2026-05-05 13:17 78.24837 15.42534 92 ft 23 kts 285°
2026-05-05 13:18 78.24881 15.41736 87 ft 26 kts 286°
2026-05-05 13:18 78.24910 15.41194 86 ft 7 kts 339°
2026-05-05 13:18 78.24916 15.41309 86 ft 7 kts 128°
2026-05-05 13:18 78.24894 15.41524 88 ft 7 kts 107°
2026-05-05 13:19 78.24809 15.43032 92 ft 93 kts 104°
2026-05-05 13:19 78.24564 15.47427 147 ft 167 kts 105°
2026-05-05 13:19 78.24233 15.53252 993 ft 187 kts 104°
2026-05-05 13:19 78.23862 15.59663 2036 ft 201 kts 101°
2026-05-05 13:20 78.23518 15.66052 3319 ft 191 kts 99°
2026-05-05 13:20 78.22904 15.72258 4138 ft 223 kts 120°
2026-05-05 13:20 78.21906 15.78775 4875 ft 247 kts 120°
2026-05-05 13:20 78.20876 15.85519 6128 ft 250 kts 121°
2026-05-05 13:21 78.19828 15.92422 7309 ft 254 kts 121°
2026-05-05 13:21 78.18773 15.99398 8452 ft 257 kts 121°
2026-05-05 13:21 78.17706 16.06568 9419 ft 264 kts 119°
2026-05-05 13:21 78.16698 16.14162 10369 ft 269 kts 117°
2026-05-05 13:22 78.15681 16.22192 10835 ft 292 kts 117°
2026-05-05 13:22 78.14565 16.31036 11045 ft 319 kts 118°
2026-05-05 13:22 78.13359 16.40480 11486 ft 336 kts 118°
2026-05-05 13:22 78.12531 16.46500 11932 ft 344 kts 125°
2026-05-05 13:23 78.11676 16.50649 12250 ft 353 kts 139°
2026-05-05 13:23 78.10612 16.53758 12690 ft 359 kts 152°
2026-05-05 13:23 78.09434 16.55819 13179 ft 362 kts 162°
2026-05-05 13:23 78.08195 16.57042 13608 ft 366 kts 170°
2026-05-05 13:24 78.06908 16.57346 13926 ft 374 kts 180°
2026-05-05 13:24 78.05604 16.56916 14226 ft 377 kts 183°
2026-05-05 13:24 78.04293 16.56245 14561 ft 380 kts 185°
2026-05-05 13:24 78.02978 16.55459 14896 ft 382 kts 185°
2026-05-05 13:25 78.01657 16.54605 15237 ft 384 kts 186°
2026-05-05 13:25 78.00332 16.53715 15557 ft 386 kts 186°
2026-05-05 13:25 77.98996 16.52803 15868 ft 388 kts 186°
2026-05-05 13:25 77.97655 16.51889 16179 ft 390 kts 186°
2026-05-05 13:26 77.96306 16.50978 16491 ft 392 kts 186°
2026-05-05 13:26 77.94954 16.50079 16776 ft 394 kts 186°
2026-05-05 13:26 77.93590 16.49188 17066 ft 396 kts 186°
2026-05-05 13:26 77.92237 16.48317 17349 ft 398 kts 185°
2026-05-05 13:27 77.90862 16.47443 17627 ft 399 kts 185°
2026-05-05 13:27 77.89479 16.46575 17927 ft 401 kts 185°
2026-05-05 13:27 77.88093 16.45717 18199 ft 403 kts 185°
2026-05-05 13:27 77.86695 16.44862 18446 ft 405 kts 185°
2026-05-05 13:28 77.85293 16.44011 18668 ft 407 kts 185°
2026-05-05 13:28 77.83887 16.43166 18906 ft 408 kts 185°
2026-05-05 13:28 77.82479 16.42324 19166 ft 408 kts 185°
2026-05-05 13:28 77.81070 16.41485 19436 ft 408 kts 185°
2026-05-05 13:29 77.79657 16.40649 19696 ft 409 kts 185°
2026-05-05 13:29 77.78245 16.39816 19932 ft 410 kts 185°
2026-05-05 13:29 77.76826 16.38983 20147 ft 411 kts 185°
2026-05-05 13:29 77.75405 16.38152 20350 ft 413 kts 185°
2026-05-05 13:30 77.73979 16.37320 20558 ft 414 kts 185°
2026-05-05 13:30 77.72546 16.36486 20769 ft 415 kts 185°
2026-05-05 13:30 77.71128 16.35663 20984 ft 416 kts 185°
2026-05-05 13:30 77.69691 16.34830 21207 ft 416 kts 185°
2026-05-05 13:31 77.68252 16.33998 21429 ft 417 kts 185°
2026-05-05 13:31 77.66812 16.33168 21618 ft 418 kts 185°
2026-05-05 13:31 77.65368 16.32337 21812 ft 419 kts 185°
2026-05-05 13:31 77.63917 16.31504 21990 ft 420 kts 185°
2026-05-05 13:32 77.62462 16.30672 22170 ft 421 kts 185°
2026-05-05 13:32 77.61006 16.29840 22349 ft 422 kts 185°
2026-05-05 13:32 77.59548 16.29008 22530 ft 423 kts 185°
2026-05-05 13:32 77.58088 16.28177 22702 ft 423 kts 185°
2026-05-05 13:33 77.56621 16.27345 22872 ft 424 kts 185°
2026-05-05 13:33 77.55157 16.26515 23035 ft 425 kts 185°
2026-05-05 13:33 77.53686 16.25684 23207 ft 426 kts 185°
2026-05-05 13:33 77.52214 16.24854 23359 ft 427 kts 185°
2026-05-05 13:34 77.50756 16.24036 23524 ft 427 kts 185°
2026-05-05 13:34 77.49280 16.23208 23685 ft 428 kts 185°
2026-05-05 13:34 77.47798 16.22378 23814 ft 429 kts 185°
2026-05-05 13:34 77.46317 16.21550 23925 ft 429 kts 185°
2026-05-05 13:35 77.44830 16.20722 24036 ft 430 kts 185°
2026-05-05 13:35 77.43346 16.19896 24142 ft 431 kts 185°
2026-05-05 13:35 77.41849 16.19066 24243 ft 432 kts 185°
2026-05-05 13:35 77.40353 16.18238 24342 ft 433 kts 185°
2026-05-05 13:36 77.38852 16.17410 24461 ft 434 kts 185°
2026-05-05 13:36 77.37352 16.16584 24593 ft 434 kts 185°
2026-05-05 13:36 77.35870 16.15771 24705 ft 435 kts 185°
2026-05-05 13:36 77.34362 16.14945 24815 ft 435 kts 185°
2026-05-05 13:37 77.32858 16.14124 24924 ft 436 kts 185°
2026-05-05 13:37 77.31350 16.13301 25029 ft 436 kts 185°
2026-05-05 13:37 77.29839 16.12478 25108 ft 437 kts 185°
2026-05-05 13:37 77.28326 16.11656 25175 ft 439 kts 185°
2026-05-05 13:38 77.26808 16.10834 25260 ft 440 kts 185°
2026-05-05 13:38 77.25287 16.10012 25347 ft 441 kts 185°
2026-05-05 13:38 77.23763 16.09190 25425 ft 441 kts 185°
2026-05-05 13:38 77.22239 16.08370 25531 ft 442 kts 185°
2026-05-05 13:39 77.20713 16.07552 25649 ft 441 kts 185°